Regional Weather Roundup
Issued by NWS

Home | Current Version | Previous Version | Graphics & Text | Print | Product List | Glossary On
Versions: 1 2 3 4 5 6 7 8 9 10 11 12 13 14 15 16 17 18 19 20 21 22 23 24 25 26 27 28 29 30 31 32 33 34 35 36 37 38 39 40 41 42 43 44 45 46 47 48 49 50
000
ASUS43 KOAX 161310
RWRNE

WEATHER ROUNDUP FOR NEBRASKA
NATIONAL WEATHER SERVICE OMAHA NE
800 AM CDT WED APR 16 2014

NOTES: SATELLITE DATA IS BEING USED TO AUGMENT CLOUD COVER ABOVE
       12000 FEET.
       "FAIR" INDICATES FEW OR NO CLOUDS BELOW 12,000 FEET WITH NO
       SIGNIFICANT WEATHER AND/OR OBSTRUCTIONS TO VISIBILITY.

  * THESE STATIONS DO NOT REPORT WEATHER SUCH AS RAIN...SNOW OR FOG.

NEZ001>004-019>022-054>056-161400-
NEBRASKA PANHANDLE

CITY           SKY/WX    TMP DP  RH WIND       PRES   REMARKS
SCOTTSBLUFF    MOCLDY    41  31  67 NW22G30   29.82R
ALLIANCE       LGT RAIN  39  36  89 NW17G25   29.76R WCI  30
CHADRON        LGT RAIN  40  36  86 NW23G30   29.77R WCI  30
KIMBALL        CLEAR     36  30  79 NW15      29.81R WCI  27
SIDNEY         CLOUDY    40  32  73 NW23      29.79R WCI  30
$$

NEZ057>060-069>072-079>082-161400-
SOUTHWEST NEBRASKA

CITY           SKY/WX    TMP DP  RH WIND       PRES   REMARKS
NORTH PLATTE   MOCLDY    47  36  65 NW25      29.66R
IMPERIAL       PTCLDY    44  34  67 NW31G45   29.70R
LEXINGTON      PTSUNNY   40  28  62 S6        29.61R
MCCOOK         CLOUDY    47  32  56 W17       29.66R
OGALLALA       PTCLDY    43  34  68 NW28G35   29.73R
$$

NEZ005>010-023>029-035>040-094-161400-
NORTH CENTRAL NEBRASKA

CITY           SKY/WX    TMP DP  RH WIND       PRES   REMARKS
VALENTINE      MIX PCPN  35  32  88 NW21G31   29.65R FOG     WCI  24
AINSWORTH      MOSUNNY   39  31  70 NW17G23   29.62R WCI  30
BROKEN BOW     CLOUDY    42  26  53 W6        29.60R
O`NEILL        CLOUDY    48  24  39 S12       29.56R
ORD            CLOUDY    45  25  45 S10       29.58R
THEDFORD       PTSUNNY   46  38  74 NW17G23   29.65R
$$

NEZ041-046>049-061>064-073>077-083>087-161400-
SOUTH CENTRAL NEBRASKA

CITY           SKY/WX    TMP DP  RH WIND       PRES   REMARKS
GRAND ISLAND   CLOUDY    46  22  38 S17       29.64R
AURORA         CLOUDY    46  24  41 S17G24    29.64S
HASTINGS       MOSUNNY   44  22  41 S9        29.64S
HEBRON         CLOUDY    50  21  31 S23G31    29.71S
HOLDREGE       PTSUNNY   42  24  48 S12       29.61F
KEARNEY *      PTSUNNY   43  25  49 S14       29.61F
YORK           CLOUDY    46  25  42 S21       29.67F
$$

NEZ011>018-030>034-042>045-161400-
NORTHEAST NEBRASKA

CITY           SKY/WX    TMP DP  RH WIND       PRES   REMARKS
NORFOLK        CLOUDY    46  22  38 S17       29.62F
ALBION         PTSUNNY   43  26  51 S10       29.62R
BLAIR          CLOUDY    47  28  47 S23G32    29.72R
COLUMBUS *     PTSUNNY   46  23  39 S15G25    29.67F
FREMONT        CLOUDY    48  26  40 S16       29.72R
TEKAMAH        CLOUDY    48  29  47 S18       29.74R
$$

NEZ050>053-065>068-078-088>093-161400-
SOUTHEAST NEBRASKA

CITY           SKY/WX    TMP DP  RH WIND       PRES   REMARKS
LINCOLN        CLOUDY    51  24  34 S20G29    29.71R
OMAHA EPPLEY   CLOUDY    47  28  47 S25G33    29.75S
BEATRICE       CLOUDY    50  24  35 S26G32    29.74R
FALLS CITY     PTSUNNY   48  28  46 S23       29.83S
NEBRASKA CITY  CLOUDY    47  29  49 S23G33    29.78S
PLATTSMOUTH    CLOUDY    47  27  45 S22G31    29.76S
$$

NEZ044-045-051>053-067-161400-
OMAHA AREA

CITY           SKY/WX    TMP DP  RH WIND       PRES   REMARKS
OMAHA EPPLEY   CLOUDY    47  28  47 S25G33    29.75S
BLAIR          CLOUDY    47  28  47 S23G32    29.72R
FREMONT        CLOUDY    48  26  40 S16       29.72R
MILLARD        CLOUDY    47  28  46 S15G26    29.75S
OFFUTT AFB     CLOUDY    46  31  55 SE18      29.77R
PLATTSMOUTH    CLOUDY    47  27  45 S22G31    29.76S
WAHOO          FAIR      47  26  44 S14       29.73R
$$



USA.gov is the U.S. government's official web portal to all federal, state and local government web resources and services.